Location: Unspecified
(0.0000°N, 0.0000°E)
Time: 16:22:12
(UTC+00:00)

ISS - Pass Details

Date: 20 September 2020
Orbit: 419 x 420 km, 51.6° (Epoch: 19 September)

Event Time Altitude Azimuth Distance (km) Brightness Sun altitude
Exits shadow 04:45:47 11° 198° (SSW) 1,418 -1.3 -16.9°
Drops below altitude 10° 04:46:05 10° 193° (SSW) 1,495 -1.1 -16.8°
Sets 04:48:45 0° 171° (S) 2,361 0.2 -16.2°
